1st Responders/1st Detectors/Storm Spotters Weather Summary for Scott County, KY

Forecast Maps


Reg. NEXRAD Animation


National Fire Danger: Day 1 & 2 Map

Current NWS Watch/Warnings

SPC Convective Day 1 Outlook


Day 2 Outlook

(Click images to enlarge|Page will refresh every 5 minutes)
UK Ag. Weather Center Desktop Severe Weather Service[HERE]
Scott County, KY Hazardous Weather Outlook Webcast
(9 AM to 9 PM Mon-Fri)
[Fast]
[Dial-up]


UKAWC 1st Detectors/1st Responders Precision Weather Forecast For SCOTT County, Kentucky
(based on the NWS County Digital Forecast)

ISSUED AT 02:00 UTC ON SUNDAY AUG 19 2018
DAY SAT SUNDAY
EDT 3HR 11P MIDN 1A 2A 3A 4A 5A 6A 7A 8A 9A 10A 11A NOON 1P 2P 3P 4P 5P 6P 7P
MAX/MIN -- -- -- -- -- -- -- -- -- 67° -- -- -- -- -- -- -- -- -- -- 83°
TEMP 70° 70° 70° 70° 68° 68° 68° 67° 67° 68° 70° 74° 76° 77° 79° 81° 81° 81° 81° 81° 79°
SKY COVER 51% 50% 48% 47% 51% 54% 58% 61% 63% 66% 68% 69% 71% 65% 60% 54% 52% 49% 47% 42% 36%
Clouds
DEW PT 70° 70° 68° 68° 67° 67° 67° 67° 67° 67° 68° 70° 70° 70° 68° 68° 68° 70° 70° 70° 70°
RH 96% 96% 96% 96% 97% 97% 96% 96% 100% 96% 93% 87% 81% 76% 68% 66% 64% 66% 67% 69% 71%
POP 12HR -- -- -- -- -- -- -- -- -- 22% -- -- -- -- -- -- -- -- -- -- --
RAIN/SNOW (liq.equ) -- -- -- 0.00in -- -- -- -- -- 0.00in -- -- -- -- -- 0.00in -- -- -- -- --
SNOWFALL -- -- -- 0in -- -- -- -- -- 0in -- -- -- -- -- 0in -- -- -- -- --
WIND SPEED(MPH) 1 1 1 1 1 2 1 1 1 1 1 1 1 2 2 2 5 5 5 5 5
WIND Gust(MPH) 2 2 5 5 5 6 6 5 5 5 2 2 2 5 5 5 7 7 7 7 7
WIND DIR NW NW NW NW N N N N N N NE NE NE NE NE NE NE NE NE NE NE
DEW Hvy Dew Hvy Dew Hvy Dew Hvy Dew Hvy Dew Hvy Dew Hvy Dew Hvy Dew Hvy Dew Hvy Dew Hvy Dew Hvy Dew Lgt Dew Lgt Dew -- -- -- -- -- -- Lgt Dew
HeatIndex 70 70 70 70 68 68 68 67 67 68 70 74 76 77 82 84 85 85 85 84 83
Rain Showers -- -- -- -- -- -- -- -- -- -- -- -- -- -- -- -- -- -- -- -- --
Thunder Storm -- -- -- -- -- -- -- -- -- -- -- -- -- -- -- -- -- -- -- -- --
Fog -- -- -- Patchy Patchy Patchy Areas of Areas of Areas of Areas of -- -- -- -- -- -- -- -- -- -- --
WIND CHILL -- -- -- -- -- -- -- -- -- -- -- -- -- -- -- -- -- -- -- -- --
SPRAY COND
DRY COND
LIVESTOCK HEATSTRESS 69.75 69.75 69.75 69.75 67.85 67.85 67.80 66.82 67.00 67.80 69.57 72.91 74.20 74.60 75.44 76.85 76.60 76.85 76.97 77.21 75.78



DAY MONDAY TUESDAY WEDNESDAY THURSDAY FRIDAY SATURDAY
EDT 6HR 8P 9P 10P 11P MIDN 1A 2A 3A 4A 5A 6A 7A 8A 9A 10A 11A 2P 5P 8P 11P 2A 5A 8A 11A 2P 5P 8P 2A 8A 2P 8P 2A 8A 2P 8P 2A 8A 2P 8P 2A 8A 2P 8P
MAX/MIN -- -- -- -- -- -- -- -- -- -- -- -- 67° -- -- -- -- 83° -- -- -- -- 70° -- -- 79° -- -- 63° 77° -- -- 56° 79° -- -- 58° 81° -- -- 63° 83° --
TEMP 77° 76° 74° 72° 70° 70° 70° 68° 67° 67° 67° 67° 68° 72° 76° 79° 83° 83° 76° 72° 72° 70° 70° 76° 79° 79° 76° 67° 63° 76° 74° 61° 58° 77° 72° 61° 61° 81° 76° 65° 65° 83° 77°
SKY COVER 27% 26% 24% 23% 25% 27% 29% 29% 28% 28% 33% 44% 49% 53% 60% 63% 80% 84% 82% 80% 90% 94% 89% 78% 81% 69% 67% 51% 40% 39% 40% 23% 12% 18% 9% 6% 4% 8% 10% 25% 29% 30% 24%
Clouds
DEW PT 68° 68° 67° 67° 67° 67° 67° 67° 65° 65° 65° 65° 67° 68° 70° 72° 72° 72° 72° 70° 70° 70° 70° 72° 70° 70° 68° 65° 63° 61° 59° 58° 56° 58° 58° 56° 56° 61° 63° 61° 63° 65° 65°
RH 74% 78% 81% 87% 90% 89% 90% 93% 92% 96% 96% 96% 92% 90% 84% 78% 66% 69% 84% 93% 93% 96% 96% 87% 73% 74% 78% 90% 96% 57% 61% 86% 93% 50% 63% 84% 86% 50% 64% 84% 90% 56% 67%
POP 12HR 7% -- -- -- -- -- -- -- -- -- -- -- 4% -- -- -- -- -- 54% -- -- -- 61% -- -- -- 66% -- 19% -- 12% -- 3% -- 2% -- 1% -- 1% -- 2% -- 13%
RAIN/SNOW (liq.equ) 0.00in -- -- -- -- -- 0.00in -- -- -- -- -- 0.00in -- -- -- 0.01in -- 0.25in -- 0.20in -- 0.21in -- 0.25in -- 0.08in -- -- -- -- -- -- -- -- -- -- -- -- -- -- -- --
SNOWFALL 0in -- -- -- -- -- 0in -- -- -- -- -- 0in -- -- -- 0in -- 0in -- 0in -- 0in -- 0in -- 0in -- -- -- -- -- -- -- -- -- -- -- -- -- -- -- --
WIND SPEED(MPH) 5 5 2 2 2 2 2 2 2 2 2 5 5 5 6 6 7 7 5 6 7 8 8 13 13 13 9 7 7 7 7 5 5 6 5 2 5 6 5 2 5 6 5
WIND DIR NE E E E E E E E E E E E SE SE SE S S SW S S S S S SW SW W W NW NW NW N N NE NE NE E E E E SE S S S
HeatIndex 77 76 74 72 70 70 70 68 67 67 67 67 68 72 76 79 89 88 76 72 72 70 70 76 83 79 76 67 63 76 74 61 58 77 72 61 61 81 76 65 65 85 77
Rain Showers -- -- -- -- -- -- -- -- -- -- -- -- Chance Chance Chance Chance Chance Chance Likely Likely Likely Likely Likely Likely Chance Chance Slight Chance -- -- -- -- -- -- -- -- -- -- -- -- -- -- -- --
Thunder Storm -- -- -- -- -- -- -- -- -- -- -- -- -- -- -- -- Chance Chance Slight Chance Slight Chance Slight Chance Slight Chance Slight Chance Slight Chance Chance Chance Slight Chance -- -- -- -- -- -- -- -- -- -- -- -- -- -- -- --
Fog -- -- -- -- -- -- -- -- -- -- -- -- -- -- -- -- -- -- -- -- -- -- -- -- -- -- -- -- -- -- -- -- -- -- -- -- -- -- -- -- -- -- --
WIND CHILL -- -- -- -- -- -- -- -- -- -- -- -- -- -- -- -- -- -- -- -- -- -- -- -- -- -- -- -- -- -- -- -- -- -- -- -- -- -- -- -- -- -- --
SPRAY COND
DRY COND
LIVESTOCK HEATSTRESS 74.40 73.92 72.41 71.06 69.38 69.32 69.38 67.65 66.64 66.82 66.82 66.82 67.60 71.27 74.49 76.56 78.47 78.87 74.49 71.49 71.49 69.75 69.75 74.77 76.00 76.11 73.92 66.55 62.91 71.93 70.74 60.83 58.03 72.00 69.31 60.81 60.83 74.89 72.59 64.45 64.66 77.14 73.70

Click on individual weather variable above in left-hand column (ie., TEMP, RH, QPF 12HR) to view state forecast maps






NWS 48 Hr. Forecast Maps,

Regional Hourly Observations For SCOTT County, Kentucky
Issued at 1000 PM EDT SAT AUG 18 2018
NORTHEAST KENTUCKY
  
CITY           SKY/WX    TMP DP  RH WIND       PRES   REMARKS
LEXINGTON      CLOUDY    73  69  87 CALM      29.95R                  
COVINGTON      MOCLDY    77  67  71 NE5       29.94R                  
FRANKFORT      CLOUDY    74  71  91 CALM      29.93R                  


Current NOWCAST not available:
Nowcasts are not issued routinely during fair weather. Only when
precipitation or other significant weather is occuring in this county will these
forecasts be issued. Currently, there is no short term forecast in effect.


Fire Weather Forecast For SCOTT County, KY
Provided by the National Weather Service:

Issued at: Sat Aug 18 22:05:01 EDT 2018


                      Tonight      Sun          Sun Night    Mon          

CLOUD COVER           PCldy        PCldy        MClear       PCldy        
PRECIP TYPE           tstms        NONE         NONE         tstms        
CHANCE PRECIP (%)     30           0            0            50           
TEMP (24H TREND)      66 (-4)      84 (+3)      67           84           
RH % (24H TREND)      100 (0)      62 (-11)     98           65           
20FTWND-VAL/AM(MPH)                Lgt/Var                   Lgt/Var      
20FTWND-RDG/PM(MPH)   Lgt/Var      Lgt/Var      Lgt/Var      S  5         
PRECIP AMOUNT         0.03         0.00         0.00         0.16         
MIXING HGT(FT-AGL/MSL)             5397                      4693         
TRANSPORT WND (MPH)                NE  5                     SW 10        
VENT RATE (KT-FT)                  26935                     44290        
DISPERSION                         Poor                      Fair         
DSI                   SLGT UNSTBL  SLGT UNSTBL  SLGT UNSTBL  SLGT UNSTBL  
LAL                   3            2            1            3            
HAINES INDEX          3            3            3            3            
ADI EARLY             2 VERY POOR  13 GEN POOR  2 VERY POOR  19 GEN POOR  
ADI LATE              1 VERY POOR  21 FAIR      2 VERY POOR  30 FAIR      
MAX LVORI EARLY       8            9            7            8            
MAX LVORI LATE        9            3            8            3            

REMARKS...ADI IS ATMOSPHERIC DISPERSION INDEX BY LAVDAS.        
LVORI IS LOW VISIBILITY OCCURRENCE RISK INDEX.

.TUESDAY...Showers likely and chance of thunderstorms. Lows
around 70. Highs in the lower 80s. South winds around 5 mph. 
.WEDNESDAY...Partly cloudy. Lows in the lower 60s. Highs in the
upper 70s. Northwest winds 5 to 10 mph. 
.THURSDAY...Mostly clear. Lows in the upper 50s. Highs in the
upper 70s. Northeast winds around 5 mph. 
.FRIDAY...Mostly clear. Lows in the upper 50s. Highs in the lower
80s. East winds around 5 mph. 
.SATURDAY...Mostly clear. Lows in the mid 60s. Highs in the mid
80s. South winds up to 5 mph. 

SPC's Fire Weather Web Tool (Excellent!), SPC's Fire Weather Outlooks, NWS Fire Weather WEB, Fire Danger Class Map,
Keetch-Byram Drought Index, ROMAN Web, Haines Index ,
WFAS's 10-hr Dead Fuel Moist., WFAS's 100-hr Dead Fuel Moist., Probablity of Ignition, Visual blackness Map, Palmer Drought Index, HPC's Rainfall Forecast Maps


Hazardous Weather Outlook For SCOTT County, Kentucky
915 PM EDT Sat Aug 18 2018 /815 PM CDT Sat Aug 18 2018/

 DAY ONE  Overnight.

Scattered showers will diminish before midnight. Skies are expected
to partially clear overnight which should result in fog development
across the outlook area. The fog could be locally dense, especially
in areas that saw appreciable rainfall Saturday afternoon and
evening.

 DAYS TWO THROUGH SEVEN  Sunday through Friday.

Thunderstorms are possible Monday into Tuesday. A few stronger storms
are possible with the main threats being heavy rainfall and gusty
winds in addition to lightning.

 SPOTTER INFORMATION STATEMENT  

Spotters should report any high rainfall amounts, flooding, and 
strong wind gusts today, and again Monday into Tuesday.

Latest SCOTT County, Kentucky Watches, Warnings and Advisories.
Additional Drought Info.: UKAWC Drought Page, Kentucky Drought Watch


7-Day Forecast For SCOTT County, KY

OVERNIGHT
Partly cloudy. Areas of fog after midnight. Lows in the upper 60s. North winds up to 5 mph.

SUNDAY
Partly cloudy. Areas of fog. Highs in the mid 80s. Northeast winds up to 5 mph.

SUNDAY NIGHT
Partly cloudy. Lows in the upper 60s. East winds around 5 mph.

MONDAY
Showers likely and slight chance of thunderstorms. Highs in the mid 80s. South winds 5 to 10 mph. Chance of precipitation 60 percent.

MONDAY NIGHT
Showers likely and slight chance of thunderstorms. Lows around 70. South winds 5 to 10 mph. Chance of precipitation 60 percent.

TUESDAY
Showers likely and chance of thunderstorms. Highs in the lower 80s. Chance of precipitation 70 percent.

TUESDAY NIGHT
Partly cloudy with a 20 percent chance of showers and thunderstorms. Lows in the lower 60s.

WEDNESDAY
Partly cloudy. Highs in the upper 70s.

WEDNESDAY NIGHT
Partly cloudy. Lows in the upper 50s.

THURSDAY
Mostly sunny. Highs in the upper 70s.

THURSDAY NIGHT
Mostly clear. Lows in the upper 50s.

FRIDAY
Mostly sunny. Highs in the lower 80s.

FRIDAY NIGHT
Mostly clear. Lows in the mid 60s.

SATURDAY
Partly cloudy. Highs in the mid 80s.

Ag Weather Center, Department of Biosystems & Agricultural Engineering, University of Kentucky